Weather History for KJAN - February, 2013

Change the Weather History Date:

Wednesday, February 13, 2013

  Actual Average Record
Temperature  
Mean Temperature 43 °F 49 °F  
Max Temperature 51 °F 60 °F 82 °F (1962)
Min Temperature 34 °F 38 °F 11 °F (1905)
Degree Days  
Heating Degree Days 22 16  
Month to date heating degree days 172 225  
Since 1 July heating degree days 1498 1777  
Cooling Degree Days 0 0  
Month to date cooling degree days 0 0  
Year to date cooling degree days 14 4  
Moisture  
Dew Point 40 °F    
Average Humidity 77    
Maximum Humidity 93    
Minimum Humidity 61    
Precipitation  
Precipitation T in 0.17 in 3.57 in (1950)
Month to date precipitation 4.99 2.25  
Year to date precipitation 13.57 7.22  
Sea Level Pressure  
Sea Level Pressure 29.97 in    
Wind  
Wind Speed 8 mph (WNW)    
Max Wind Speed 18 mph    
Max Gust Speed 25 mph    
Visibility 10 miles    
Events      
T = Trace of Precipitation, MM = Missing Value Source: NWS Daily Summary

Daily Weather History Graph

Daily Weather History Graph

Search for Another Location

Airport or City:

Trip Planner

Search our weather history database for the weather conditions in past years. The results will help you decide how hot, cold, wet, or windy it might be!

Date:

Astronomy

Feb. 13, 2013 Rise Set
Actual Time 6:44 AM CST 5:44 PM CST
Civil Twilight 6:19 AM CST 6:10 PM CST
Nautical Twilight 5:50 AM CST 6:38 PM CST
Astronomical Twilight 5:22 AM CST 7:07 PM CST
Moon 8:29 AM CST (2/13) 9:29 PM CST (2/13)
Length of Visible Light 11h 50m
Length of Day
11h 00m
Waxing Crescent, 14% of the Moon is Illuminated
Feb 13
Waxing Crescent
Feb 17
First Quarter
Feb 25
Full
Mar 4
Last Quarter
Mar 11
New

Hourly Weather History & Observations

Time (CST) Temp. Windchill Dew Point Humidity Pressure Visibility Wind Dir Wind Speed Gust Speed Precip Events Conditions
12:23 AM 50.0 °F - 48.2 °F 94% 29.83 in 10.0 mi West 9.2 mph - N/A   Overcast
12:54 AM 50.0 °F - 48.0 °F 93% 29.82 in 10.0 mi West 11.5 mph - N/A   Overcast
1:10 AM 50.0 °F - 46.4 °F 87% 29.84 in 10.0 mi West 11.5 mph - N/A   Overcast
1:54 AM 50.0 °F - 46.0 °F 86% 29.83 in 10.0 mi West 11.5 mph - N/A   Mostly Cloudy
2:08 AM 48.2 °F - 44.6 °F 87% 29.83 in 10.0 mi West 11.5 mph 17.3 mph N/A   Scattered Clouds
2:19 AM 48.2 °F - 46.4 °F 93% 29.83 in 10.0 mi WSW 9.2 mph - N/A   Mostly Cloudy
2:42 AM 48.2 °F - 44.6 °F 87% 29.84 in 10.0 mi West 9.2 mph - N/A   Scattered Clouds
2:54 AM 48.0 °F - 45.0 °F 89% 29.85 in 10.0 mi WSW 8.1 mph - N/A   Partly Cloudy
3:21 AM 48.2 °F - 44.6 °F 87% 29.87 in 10.0 mi WSW 11.5 mph - N/A   Mostly Cloudy
3:54 AM 48.0 °F - 44.1 °F 86% 29.88 in 10.0 mi West 12.7 mph 24.2 mph N/A   Overcast
4:54 AM 48.0 °F - 44.1 °F 86% 29.89 in 10.0 mi West 13.8 mph 19.6 mph N/A   Overcast
5:54 AM 46.0 °F 41.0 °F 42.1 °F 86% 29.91 in 10.0 mi WNW 10.4 mph 19.6 mph 0.00 in   Overcast
6:13 AM 46.4 °F 42.4 °F 42.8 °F 87% 29.91 in 10.0 mi WNW 8.1 mph - N/A   Overcast
6:54 AM 46.0 °F 40.2 °F 42.1 °F 86% 29.93 in 10.0 mi WNW 12.7 mph - N/A   Overcast
7:54 AM 46.0 °F 42.5 °F 41.0 °F 83% 29.94 in 10.0 mi WNW 6.9 mph - N/A   Overcast
8:02 AM 46.4 °F 41.9 °F 41.0 °F 81% 29.95 in 10.0 mi WNW 9.2 mph - N/A   Overcast
8:49 AM 46.4 °F 41.5 °F 41.0 °F 81% 29.98 in 10.0 mi West 10.4 mph - N/A   Overcast
8:54 AM 46.9 °F - 41.0 °F 80% 29.99 in 10.0 mi West 6.9 mph - N/A   Overcast
9:18 AM 46.4 °F 42.4 °F 41.0 °F 81% 30.00 in 10.0 mi WNW 8.1 mph - N/A   Overcast
9:39 AM 48.2 °F - 39.2 °F 71% 30.00 in 10.0 mi West 12.7 mph 18.4 mph N/A   Overcast
9:54 AM 48.0 °F - 39.9 °F 74% 30.00 in 10.0 mi NW 11.5 mph 18.4 mph N/A   Overcast
10:08 AM 48.2 °F - 39.2 °F 71% 30.01 in 10.0 mi NW 11.5 mph 17.3 mph N/A   Overcast
10:19 AM 48.2 °F - 39.2 °F 71% 30.00 in 10.0 mi NW 12.7 mph 20.7 mph N/A   Overcast
10:32 AM 46.4 °F 41.1 °F 39.2 °F 76% 30.00 in 10.0 mi NW 11.5 mph - N/A   Overcast
10:45 AM 48.2 °F - 39.2 °F 71% 30.00 in 10.0 mi WNW 10.4 mph 19.6 mph N/A   Overcast
10:54 AM 48.0 °F - 39.0 °F 71% 30.00 in 10.0 mi WNW 15.0 mph 24.2 mph N/A   Overcast
11:54 AM 50.0 °F - 41.0 °F 71% 30.00 in 10.0 mi NW 9.2 mph 17.3 mph N/A   Mostly Cloudy
12:12 PM 50.0 °F - 39.2 °F 66% 30.00 in 10.0 mi WNW 15.0 mph 21.9 mph N/A   Mostly Cloudy
12:33 PM 50.0 °F - 37.4 °F 62% 29.99 in 10.0 mi NNW 13.8 mph - N/A   Overcast
12:54 PM 50.0 °F - 37.0 °F 61% 29.99 in 10.0 mi NNW 13.8 mph 23.0 mph N/A   Overcast
1:11 PM 48.2 °F - 37.4 °F 66% 29.99 in 10.0 mi NW 12.7 mph 19.6 mph N/A   Overcast
1:19 PM 48.2 °F - 37.4 °F 66% 29.99 in 10.0 mi NNW 17.3 mph 21.9 mph N/A   Overcast
1:32 PM 48.2 °F - 37.4 °F 66% 29.99 in 10.0 mi NW 11.5 mph 19.6 mph N/A   Overcast
1:54 PM 50.0 °F - 39.0 °F 66% 29.99 in 10.0 mi NNW 15.0 mph 18.4 mph N/A   Overcast
2:54 PM 48.0 °F - 36.0 °F 63% 30.00 in 10.0 mi NW 10.4 mph - N/A   Overcast
3:54 PM 48.0 °F - 37.9 °F 68% 30.01 in 10.0 mi North 6.9 mph - N/A   Overcast
4:21 PM 46.4 °F 41.5 °F 37.4 °F 71% 30.02 in 10.0 mi North 10.4 mph - N/A   Overcast
4:54 PM 46.9 °F - 37.9 °F 71% 30.02 in 10.0 mi North 9.2 mph - N/A   Overcast
5:54 PM 45.0 °F 40.6 °F 37.0 °F 74% 30.04 in 10.0 mi North 8.1 mph - N/A   Overcast
6:54 PM 42.1 °F - 36.0 °F 79% 30.05 in 10.0 mi Calm Calm - N/A   Mostly Cloudy
7:54 PM 39.9 °F - 36.0 °F 86% 30.06 in 10.0 mi Calm Calm - N/A   Mostly Cloudy
8:54 PM 37.9 °F - 35.1 °F 89% 30.07 in 10.0 mi Calm Calm - N/A   Partly Cloudy
9:54 PM 36.0 °F - 34.0 °F 93% 30.08 in 10.0 mi Calm Calm - N/A   Partly Cloudy
10:54 PM 36.0 °F - 34.0 °F 93% 30.08 in 8.0 mi Calm Calm - N/A   Partly Cloudy
11:54 PM 34.0 °F - 32.0 °F 92% 30.08 in 8.0 mi Calm Calm - N/A   Clear